Retour au catalogue

GLOBALSTAR M076

ActifCommunicationsLEO
NORAD 37190·PAYLOAD·🇺🇸 United States

Lancé Oct 19, 2010 depuis Baikonur Cosmodrome

Loading…

Prochains Passages (prochaines 24 heures)

TLE

FraisSource: Space-Track

Époque: Sep 14, 2026, 07:03 UTC

1 37190U 10054C   26257.29397266 -.00000090  00000-0  77238-4 0  9997
2 37190  52.0017 196.8794 0000219  64.8474  99.2605 12.62263602734124

Suivez GLOBALSTAR M076 en temps réel avec AllMySat

Download on the App Store